This is the latest recevied weather packets stored in our database for station/object DB0OHL. If no packets are shown the sender has not sent any weather packets the latest 10 day(s).
| Time | Temp. | Humidity | Pressure | Rain* | Wind** | Luminosity | Snow |
|---|---|---|---|---|---|---|---|
| 1777575946 | 15° C | 49% | 1025.4 hPa | 0 mm | - | - | - |
| 1777575344 | 15.56° C | 47% | 1025.3 hPa | 0 mm | - | - | - |
| 1777574741 | 15.56° C | 47% | 1025.3 hPa | 0 mm | - | - | - |
| 1777574138 | 16.11° C | 46% | 1025.1 hPa | 0 mm | - | - | - |
| 1777573536 | 16.11° C | 45% | 1025 hPa | 0 mm | - | - | - |
| 1777572933 | 16.67° C | 44% | 1025 hPa | 0 mm | - | - | - |
| 1777572331 | 16.67° C | 44% | 1024.9 hPa | 0 mm | - | - | - |
| 1777571728 | 17.22° C | 43% | 1024.8 hPa | 0 mm | - | - | - |
| 1777571126 | 17.22° C | 42% | 1024.8 hPa | 0 mm | - | - | - |
| 1777570524 | 17.78° C | 42% | 1024.9 hPa | 0 mm | - | - | - |
| 1777569921 | 18.33° C | 41% | 1024.9 hPa | 0 mm | - | - | - |
| 1777569318 | 18.33° C | 41% | 1024.9 hPa | 0 mm | - | - | - |
| 1777568716 | 18.33° C | 40% | 1024.9 hPa | 0 mm | - | - | - |
| 1777568173 | 18.33° C | 40% | 1025 hPa | 0 mm | - | - | - |
| 1777567571 | 18.33° C | 38% | 1024.9 hPa | 0 mm | - | - | - |
| 1777566968 | 18.89° C | 38% | 1025.1 hPa | 0 mm | - | - | - |
| 1777566366 | 18.33° C | 38% | 1025 hPa | 0 mm | - | - | - |
| 1777565763 | 18.33° C | 37% | 1025 hPa | 0 mm | - | - | - |
| 1777565161 | 18.89° C | 37% | 1025 hPa | 0 mm | - | - | - |
| 1777564558 | 18.33° C | 38% | 1025 hPa | 0 mm | - | - | - |
| 1777563955 | 18.33° C | 37% | 1025.1 hPa | 0 mm | - | - | - |
| 1777563353 | 18.33° C | 37% | 1025 hPa | 0 mm | - | - | - |
| 1777562750 | 18.89° C | 37% | 1025.2 hPa | 0 mm | - | - | - |
| 1777562148 | 18.89° C | 37% | 1025.2 hPa | 0 mm | - | - | - |
| 1777561545 | 18.89° C | 37% | 1025.2 hPa | 0 mm | - | - | - |
* Rain latest hour (hover to see other rain measurements)
** Current wind speed in m/s (hover to see current wind gust speed)